OK1TBF-15 Weather Reports


time (UTC)temp
C
wind
direction
speed
KPH
gust
KPH
rain 1hr
cm
rain 24hr
cm
rain mn
cm
humidity
%
barometer
mb
20260506174745 16 0.0 0.0 0.00 0.00 0.00 60 1004.7
20260506173745 16 0.0 0.0 0.00 0.00 0.00 62 1004.7
20260506172745 16 0.0 0.0 0.00 0.00 0.00 61 1004.8
20260506171745 16 0.0 0.0 0.00 0.00 0.00 61 1004.8
20260506170745 17 0.0 0.0 0.00 0.00 0.00 59 1004.8
20260506165744 16 0.0 0.0 0.00 0.00 0.00 60 1004.8
20260506164745 16 0.0 0.0 0.00 0.00 0.00 61 1005.0
20260506163745 16 0.0 0.0 0.00 0.00 0.00 59 1005.1
20260506162745 18 0.0 0.0 0.00 0.00 0.00 52 1005.0
20260506161745 20 0.0 0.0 0.00 0.00 0.00 46 1004.7
20260506160745 19 0.0 0.0 0.00 0.00 0.00 46 1004.9
20260506155745 20 0.0 0.0 0.00 0.00 0.00 46 1005.0
20260506154745 20 0.0 0.0 0.00 0.00 0.00 48 1005.2
20260506153401 20 0.0 0.0 0.00 0.00 0.00 46 1005.4
20260506152407 19 0.0 0.0 0.00 0.00 0.00 46 1005.5
20260506151619 20 0.0 0.0 0.00 0.00 0.00 44 1005.5
20260506150619 20 0.0 0.0 0.00 0.00 0.00 44 1005.6
20260506145619 20 0.0 0.0 0.00 0.00 0.00 42 1005.7
20260506144619 20 0.0 0.0 0.00 0.00 0.00 43 1005.8
20260506143619 20 0.0 0.0 0.00 0.00 0.00 45 1005.9
20260506142619 20 0.0 0.0 0.00 0.00 0.00 45 1006.0
20260506141619 20 0.0 0.0 0.00 0.00 0.00 45 1006.1
20260506140619 20 0.0 0.0 0.00 0.00 0.00 44 1006.1
20260506135619 20 0.0 0.0 0.00 0.00 0.00 45 1006.3
20260506134619 20 0.0 0.0 0.00 0.00 0.00 45 1006.4
20260506133619 20 0.0 0.0 0.00 0.00 0.00 44 1006.6
20260506132619 20 0.0 0.0 0.00 0.00 0.00 43 1006.7
20260506131619 20 0.0 0.0 0.00 0.00 0.00 41 1006.8
20260506130619 21 0.0 0.0 0.00 0.00 0.00 39 1006.9
20260506125619 21 0.0 0.0 0.00 0.00 0.00 39 1007.0
20260506124619 21 0.0 0.0 0.00 0.00 0.00 42 1007.2
20260506123619 21 0.0 0.0 0.00 0.00 0.00 41 1007.2
20260506122619 21 0.0 0.0 0.00 0.00 0.00 43 1007.3
20260506121619 20 0.0 0.0 0.00 0.00 0.00 42 1007.4
20260506120619 20 0.0 0.0 0.00 0.00 0.00 45 1007.5
20260506115619 20 0.0 0.0 0.00 0.00 0.00 44 1007.5
20260506114619 20 0.0 0.0 0.00 0.00 0.00 42 1007.5
20260506113619 21 0.0 0.0 0.00 0.00 0.00 43 1007.6
20260506112619 21 0.0 0.0 0.00 0.00 0.00 40 1007.7
20260506111619 21 0.0 0.0 0.00 0.00 0.00 42 1007.8
20260506110619 20 0.0 0.0 0.00 0.00 0.00 44 1007.8
20260506105619 20 0.0 0.0 0.00 0.00 0.00 43 1007.8
20260506104619 20 0.0 0.0 0.00 0.00 0.00 43 1007.9
20260506103619 20 0.0 0.0 0.00 0.00 0.00 47 1008.1
20260506102619 20 0.0 0.0 0.00 0.00 0.00 44 1008.2
20260506101619 20 0.0 0.0 0.00 0.00 0.00 43 1008.2
20260506100619 20 0.0 0.0 0.00 0.00 0.00 48 1008.3
20260506095619 19 0.0 0.0 0.00 0.00 0.00 47 1008.4
20260506094619 18 0.0 0.0 0.00 0.00 0.00 52 1008.3
20260506093619 18 0.0 0.0 0.00 0.00 0.00 51 1008.4
20260506092619 18 0.0 0.0 0.00 0.00 0.00 50 1008.4
20260506091619 17 0.0 0.0 0.00 0.00 0.00 52 1008.4
20260506090619 17 0.0 0.0 0.00 0.00 0.00 53 1008.4
20260506085619 17 0.0 0.0 0.00 0.00 0.00 55 1008.4
20260506084619 17 0.0 0.0 0.00 0.00 0.00 55 1008.3
20260506083619 17 0.0 0.0 0.00 0.00 0.00 57 1008.4
20260506082619 17 0.0 0.0 0.00 0.00 0.00 56 1008.4
20260506081619 16 0.0 0.0 0.00 0.00 0.00 57 1008.3
20260506080619 16 0.0 0.0 0.00 0.00 0.00 58 1008.3
20260506072619 15 0.0 0.0 0.00 0.00 0.00 63 1008.3
20260506071619 15 0.0 0.0 0.00 0.00 0.00 64 1008.4
20260506070619 15 0.0 0.0 0.00 0.00 0.00 65 1008.2
20260506061619 13 0.0 0.0 0.00 0.00 0.00 73 1008.3
20260506060619 13 0.0 0.0 0.00 0.00 0.00 74 1008.0
20260506050619 12 0.0 0.0 0.00 0.00 0.00 83 1007.6
20260506044619 12 0.0 0.0 0.00 0.00 0.00 84 1007.6
20260506043622 11 0.0 0.0 0.00 0.00 0.00 85 1007.3
20260506041617 11 0.0 0.0 0.00 0.00 0.00 85 1007.2
20260506040617 11 0.0 0.0 0.00 0.00 0.00 83 1007.0
20260506035617 11 0.0 0.0 0.00 0.00 0.00 83 1006.9
20260506034617 11 0.0 0.0 0.00 0.00 0.00 82 1006.9
20260506033617 11 0.0 0.0 0.00 0.00 0.00 83 1007.0
20260506032617 11 0.0 0.0 0.00 0.00 0.00 84 1007.0
20260506031617 11 0.0 0.0 0.00 0.00 0.00 82 1006.9
20260506030617 11 0.0 0.0 0.00 0.00 0.00 81 1006.6
20260506025617 12 0.0 0.0 0.00 0.00 0.00 80 1006.5
20260506024617 12 0.0 0.0 0.00 0.00 0.00 80 1006.4
20260506023617 12 0.0 0.0 0.00 0.00 0.00 80 1006.3
20260506022617 12 0.0 0.0 0.00 0.00 0.00 78 1006.3
20260506021617 12 0.0 0.0 0.00 0.00 0.00 78 1006.3
20260506020617 12 0.0 0.0 0.00 0.00 0.00 78 1006.5
20260506015617 12 0.0 0.0 0.00 0.00 0.00 76 1006.5
20260506014617 12 0.0 0.0 0.00 0.00 0.00 74 1006.4
20260506013617 12 0.0 0.0 0.00 0.00 0.00 70 1006.4
20260506012617 12 0.0 0.0 0.00 0.00 0.00 68 1006.3
20260506011617 13 0.0 0.0 0.00 0.00 0.00 66 1006.1
20260506010617 13 0.0 0.0 0.00 0.00 0.00 62 1006.1
20260506005617 13 0.0 0.0 0.00 0.00 0.00 58 1006.1
20260506004617 13 0.0 0.0 0.00 0.00 0.00 58 1006.2
20260506002617 13 0.0 0.0 0.00 0.00 0.00 57 1006.1
20260506001617 13 0.0 0.0 0.00 0.00 0.00 55 1006.2
20260506000617 13 0.0 0.0 0.00 0.00 0.00 54 1006.3
20260505235617 13 0.0 0.0 0.00 0.00 0.00 55 1006.3
20260505234617 13 0.0 0.0 0.00 0.00 0.00 55 1006.4
20260505233617 13 0.0 0.0 0.00 0.00 0.00 55 1006.4
20260505232617 13 0.0 0.0 0.00 0.00 0.00 54 1006.5
20260505231617 14 0.0 0.0 0.00 0.00 0.00 53 1006.5
20260505230617 14 0.0 0.0 0.00 0.00 0.00 53 1006.6
20260505225618 14 0.0 0.0 0.00 0.00 0.00 52 1006.4
20260505224617 14 0.0 0.0 0.00 0.00 0.00 51 1005.7
20260505223617 15 0.0 0.0 0.00 0.00 0.00 51 1005.5
20260505222617 15 0.0 0.0 0.00 0.00 0.00 50 1005.6
20260505221617 15 0.0 0.0 0.00 0.00 0.00 50 1005.6
20260505220617 15 0.0 0.0 0.00 0.00 0.00 50 1005.6
20260505215617 15 0.0 0.0 0.00 0.00 0.00 49 1005.7
20260505214617 15 0.0 0.0 0.00 0.00 0.00 49 1005.8
20260505213620 15 0.0 0.0 0.00 0.00 0.00 48 1005.7
20260505212617 15 0.0 0.0 0.00 0.00 0.00 48 1005.4
20260505211617 16 0.0 0.0 0.00 0.00 0.00 47 1005.6
20260505210617 16 0.0 0.0 0.00 0.00 0.00 47 1005.7
20260505205617 16 0.0 0.0 0.00 0.00 0.00 47 1005.8
20260505204617 16 0.0 0.0 0.00 0.00 0.00 48 1006.0
20260505203617 16 0.0 0.0 0.00 0.00 0.00 46 1005.9
20260505202617 16 0.0 0.0 0.00 0.00 0.00 46 1005.9
20260505201617 17 0.0 0.0 0.00 0.00 0.00 44 1005.8
20260505200617 17 0.0 0.0 0.00 0.00 0.00 44 1005.7
20260505195617 17 0.0 0.0 0.00 0.00 0.00 43 1005.7
20260505194617 17 0.0 0.0 0.00 0.00 0.00 43 1005.6
20260505193617 17 0.0 0.0 0.00 0.00 0.00 42 1005.4
20260505192617 18 0.0 0.0 0.00 0.00 0.00 41 1005.3
20260505191617 18 0.0 0.0 0.00 0.00 0.00 41 1005.5
20260505190617 18 0.0 0.0 0.00 0.00 0.00 39 1005.4
20260505185617 18 0.0 0.0 0.00 0.00 0.00 37 1005.3
20260505184617 18 0.0 0.0 0.00 0.00 0.00 36 1005.3
20260505183617 18 0.0 0.0 0.00 0.00 0.00 32 1005.2
20260505182617 18 0.0 0.0 0.00 0.00 0.00 33 1005.2
20260505181617 17 0.0 0.0 0.00 0.00 0.00 33 1005.2
20260505180617 18 0.0 0.0 0.00 0.00 0.00 34 1005.2
20260505175617 18 0.0 0.0 0.00 0.00 0.00 36 1005.2